Home > Time Zones > World Clock > Weather > Italy > Milan > Past weeks

Flag for Italy Weather past 2 weeks in Milan, Italy

Now
86 °F

Sunny.


Feels Like: 85 °F
Forecast: 70 / 88 °F
Wind: 7 mph from North

Location: Milan / Linate

Current Time: Jun 30, 2015 at 5:37:13 PM

Latest Report: Jun 30, 2015 at 4:50 PM


Visibility: 10 mi

Pressure: 30.09 "Hg

Humidity: 40%

Dew point: 59 °F

Location of MilanLocation

Historic Weather in Milan — Graph

°F

Milan temperature yesterday

Maximum temperature yesterday: 84 °F (at 3:20 PM)
Minimum temperature yesterday: 70 °F (at 6:20 AM)
Average temperature yesterday: 78 °F

Past Weeks' High & Low Weather Summary

 TemperatureHumidityPressure
High86 °F (Jun 27, 4:50 PM)100% (Jun 15, 10:20 PM)30.21 "Hg (Jun 15, 10:20 PM)
Low59 °F (Jun 24, 4:50 AM)25% (Jun 23, 10:20 PM)29.71 "Hg (Jun 23, 4:50 AM)
Average73 °F61%29.99 "Hg
* Reported Jun 15 4:20 PM — Jun 30 4:20 PM, Milan, Weather by CustomWeather, © 2015

Note: Actual official high and low records may vary slightly from our data, if they occured in-between our weather recording intervals... More about our weather records

Advertising

Milan weather history for previous 24 hours

 ConditionsComfort  
Time TempWeatherWind HumidityBarometerVisibility
4:20 PM
Tue, Jun 30
86 °FPassing clouds.6 mph38%30.09 "HgN/A
3:50 PM86 °FPassing clouds.7 mph38%30.09 "HgN/A
2:50 PM84 °FPassing clouds.7 mph40%30.12 "HgN/A
2:20 PM84 °FPassing clouds.5 mph40%30.12 "HgN/A
1:50 PM84 °FPassing clouds.7 mph40%30.12 "HgN/A
1:20 PM84 °FPassing clouds.5 mph37%30.15 "HgN/A
12:50 PM82 °FPassing clouds.6 mph40%30.15 "HgN/A
12:20 PM82 °FPassing clouds.7 mph40%30.15 "HgN/A
11:50 AM81 °FPassing clouds.8 mph42%30.15 "HgN/A
11:20 AM82 °FPassing clouds.8 mph40%30.15 "HgN/A
10:50 AM81 °FPassing clouds.8 mph42%30.15 "HgN/A
10:20 AM79 °FPassing clouds.8 mph51%30.15 "HgN/A
9:50 AM79 °FPassing clouds.9 mph48%30.15 "HgN/A
9:20 AM77 °FPassing clouds.8 mph51%30.15 "HgN/A
8:50 AM77 °FPassing clouds.7 mph51%30.15 "HgN/A
8:20 AM75 °FScattered clouds.5 mph57%30.15 "HgN/A
7:50 AM73 °FScattered clouds.5 mph65%30.12 "HgN/A
7:20 AM72 °FScattered clouds.3 mph69%30.12 "HgN/A
6:50 AM70 °FScattered clouds.3 mph69%30.12 "HgN/A
6:20 AM70 °FPassing clouds.2 mph69%30.12 "HgN/A
5:50 AM70 °FPassing clouds.2 mph69%30.12 "HgN/A
4:50 AM70 °FPassing clouds.3 mph69%30.12 "HgN/A
4:20 AM70 °FPassing clouds.3 mph69%30.12 "HgN/A
3:50 AM72 °FPassing clouds.3 mph65%30.12 "HgN/A
3:20 AM72 °FClear.6 mph65%30.12 "Hg10 mi
2:50 AM72 °FPassing clouds.6 mph65%30.12 "HgN/A
2:20 AM72 °FClear.6 mph65%30.12 "Hg10 mi
1:50 AM73 °FClear.6 mph65%30.12 "Hg10 mi
1:20 AM73 °FClear.7 mph65%30.12 "Hg10 mi
12:50 AM75 °FClear.6 mph61%30.12 "Hg10 mi
12:20 AM75 °FClear.5 mph61%30.12 "Hg10 mi
11:50 PM
Mon, Jun 29
75 °FClear.5 mph61%30.12 "Hg10 mi
11:20 PM75 °FPassing clouds.3 mph61%30.12 "HgN/A
10:50 PM77 °FPassing clouds.3 mph57%30.09 "HgN/A
10:20 PM77 °FClear.2 mph61%30.09 "Hg10 mi
9:50 PM79 °FPassing clouds.3 mph54%30.09 "HgN/A
9:20 PM81 °FPassing clouds.5 mph48%30.09 "HgN/A
8:50 PM81 °FSunny.6 mph48%30.07 "Hg10 mi
8:20 PM82 °FPassing clouds.6 mph45%30.07 "HgN/A
7:50 PM82 °FSunny.7 mph45%30.07 "Hg10 mi
7:20 PM82 °FPassing clouds.5 mph45%30.07 "HgN/A
6:50 PM84 °FPassing clouds.6 mph43%30.07 "HgN/A
6:20 PM84 °FPassing clouds.6 mph43%30.07 "HgN/A
5:50 PM84 °FPassing clouds.6 mph43%30.07 "HgN/A
5:20 PM84 °FSunny.5 mph43%30.07 "Hg10 mi
Weather by CustomWeather, © 2015

See weather overviewHow to use our weather pages